Regional Weather Roundup
Issued by NWS Jackson, KY

Home | Current Version | Previous Version | Text Only | Print | Product List | Glossary Off
Versions: 1 2 3 4 5 6 7 8 9 10 11 12 13 14 15 16 17 18 19 20 21 22 23 24 25 26 27

000
ASUS43 KJKL 010810
RWRJKL

EAST KENTUCKY HOURLY WEATHER ROUNDUP
NATIONAL WEATHER SERVICE JACKSON KY
400 AM EDT SAT OCT 01 2016

NOTE: "FAIR" INDICATES FEW OR NO CLOUDS BELOW 12,000 FEET WITH
NO SIGNIFICANT WEATHER AND/OR OBSTRUCTIONS TO VISIBILITY.

* THESE REPORTS ARE NOT UNDER NWS QUALITY CONTROL AND MAY NOT
  REPORT WEATHER SUCH AS PRECIPITATION AND FOG.

KYZ079-080-083-085-087-088-110-112-115-119-120-010900
...EASTERN KENTUCKY...

CITY           SKY/WX    TMP DP  RH WIND       PRES   REMARKS
JACKSON        CLEAR     53  49  86 SE3       30.07S
LONDON         MOCLDY    51  48  89 CALM      30.06F
SOMERSET*      CLEAR     50  50 100 CALM      30.07S
MONTICELLO*    MOCLDY    50  49  96 W10       30.07S
WILLIAMSBURG*  MOSUNNY   50  50 100 SE3       30.07S
MIDDLESBORO*   FOG       48  48 100 CALM      30.09S VSB 1/4
HARLAN APT*    CLOUDY    50  48  93 CALM      30.09S VSB 1/4
PIKE CO APT*   MOCLDY    53  53 100 S3        30.07F FOG
MOREHEAD APT*  MOSUNNY   54  50  87 CALM      30.07F
ASHLAND*       CLOUDY    52  52 100 CALM      30.06R
$$

KYZ035-036-041-042-044-050-067-078-099-010900
...CENTRAL KENTUCKY...

CITY           SKY/WX    TMP DP  RH WIND       PRES   REMARKS
MT STERLING*   CLOUDY    55  52  88 SW5       30.06F
FLEMING/MASON* CLOUDY    55  52  88 S6        30.06S
DANVILLE*      CLOUDY    54  52  94 CALM      30.05F
LEXINGTON      MOCLDY    56  53  90 SE5       30.04F
FRANKFORT      MOCLDY    56  53  90 S3        30.02S FOG
LOUISVILLE     CLOUDY    56  55  97 S5        30.02S FOG
LEBANON*       CLOUDY    57  55  94 SE5       30.03F FOG
GLASGOW*       CLOUDY    57  57 100 S5        30.02F
BOWLING GREEN  CLOUDY    60  57  89 S7        30.02F
$$

KYZ091>093-OHZ055-061-077-WVZ005-015-034-035-042-010900
...SOUTHERN OHIO/WEST VIRGINIA...

CITY           SKY/WX    TMP DP  RH WIND       PRES   REMARKS
COVINGTON      RAIN      56  55  97 S5        30.02S FOG
COLUMBUS       CLEAR     55  55 100 S3        30.05R FOG
DAYTON         MOCLDY    53  52  96 S7        30.04R FOG
WILMINGTON     CLOUDY    53  52  96 SE6       30.05R
HUNTINGTON     FOG       52  51  97 SW3       30.07R VSB 3/4
CHARLESTON     CLOUDY    58  57  97 CALM      30.06S FOG
PINEVILLE*     FOG       57  55  90 MISG      30.14R VSB 3/4
BECKLEY        FOG       55  54  96 CALM      30.10R VSB 3/4
BLUEFIELD      FOG       53  52  96 W5        30.11R VSB 1/4
LOGAN CO APT*  FOG       55  55 100 CALM      30.08R VSB<1/4
$$

VAZ002-007-008-TNZ017-027-036-066-071-010900
...SOUTHWEST VIRGINIA/EAST TENNESSEE...

CITY           SKY/WX    TMP DP  RH WIND       PRES   REMARKS
WISE*          MOCLDY    54  50  87 S3        30.10F
JONESVILLE*      N/A     45  45 100 CALM      30.10F
ABINGDON*      FOG       52  52 100 CALM      30.09F VSB 1/4
BRISTOL        PTCLDY    51  50  96 CALM      30.08S
MORRISTOWN*    MOSUNNY   50  46  87 CALM      30.07R
SEVIERVILLE*   SUNNY     46  45  93 CALM      30.07S
KNOXVILLE      CLEAR     53  47  79 CALM      30.06F
OAK RIDGE      CLEAR     52  49  89 CALM      30.09S
CROSSVILLE     CLEAR     51  49  92 CALM      30.09R
NASHVILLE      MOCLDY    56  54  93 S5        30.04F
$$

...KEY TO REMARKS...
VSB - VISIBILITY IN MILES
WCI - WIND CHILL INDEX
HX  - HEAT INDEX

$$




USA.gov is the U.S. government's official web portal to all federal, state and local government web resources and services.